| time (UTC) | temp C | wind direction | speed KPH | gust KPH | rain 1hr cm | rain 24hr cm | rain mn cm | humidity % | barometer mb |
| 20260504141108 | 12 | 344 | 1.6 | 1.6 | 0.00 | 0.03 | 0.03 | 93 | 1012.4 |
| 20260504140604 | 12 | 328 | 1.6 | 3.2 | 0.00 | 0.03 | 0.03 | 93 | 1012.2 |
| 20260504130528 | 13 | 315 | 1.6 | 1.6 | 0.00 | 0.00 | 0.00 | 80 | 1012.3 |
| 20260504110416 | 6 | 333 | 1.6 | 1.6 | 0.00 | 0.00 | 0.00 | 96 | 1011.4 |
| 20260504100332 | 6 | 331 | 1.6 | 1.6 | 0.00 | 0.00 | 0.00 | 94 | 1011.8 |
| 20260504081726 | 6 | 332 | 1.6 | 1.6 | 0.00 | 0.00 | 0.00 | 99 | 1012.3 |
| 20260504081222 | 6 | 329 | 0.0 | 0.0 | 0.00 | 0.00 | 0.00 | 99 | 1012.4 |
| 20260504080719 | 6 | 333 | 1.6 | 3.2 | 0.00 | 0.00 | 0.00 | 99 | 1012.2 |
| 20260504080215 | 6 | 326 | 1.6 | 1.6 | 0.00 | 0.00 | 0.00 | 99 | 1012.3 |
| 20260504070143 | 7 | 333 | 0.0 | 0.0 | 0.00 | 0.00 | 0.00 | 99 | 1012.8 |
| 20260504060103 | 8 | 337 | 1.6 | 1.6 | 0.00 | 0.00 | 0.00 | 99 | 1013.3 |
| 20260504050531 | 8 | 332 | 0.0 | 1.6 | 0.00 | 0.00 | 0.00 | 97 | 1013.1 |
| 20260504045525 | 8 | 334 | 0.0 | 0.0 | 0.00 | 0.00 | 0.00 | 96 | 1013.5 |
| 20260504045021 | 8 | 326 | 0.0 | 0.0 | 0.00 | 0.00 | 0.00 | 95 | 1013.8 |
| 20260504044518 | 8 | 322 | 1.6 | 1.6 | 0.00 | 0.00 | 0.00 | 95 | 1013.6 |
| 20260504044015 | 9 | 337 | 1.6 | 1.6 | 0.00 | 0.00 | 0.00 | 95 | 1013.7 |
| 20260504043512 | 9 | 329 | 0.0 | 1.6 | 0.00 | 0.00 | 0.00 | 94 | 1013.7 |
| 20260504043010 | 8 | 331 | 0.0 | 0.0 | 0.00 | 0.00 | 0.00 | 93 | 1013.6 |
| 20260504042506 | 8 | 331 | 0.0 | 0.0 | 0.00 | 0.00 | 0.00 | 93 | 1013.7 |
| 20260504042003 | 9 | 331 | 0.0 | 0.0 | 0.00 | 0.00 | 0.00 | 93 | 1013.6 |
| 20260504041459 | 9 | 327 | 0.0 | 0.0 | 0.00 | 0.00 | 0.00 | 92 | 1013.7 |
| 20260504040955 | 9 | 327 | 0.0 | 0.0 | 0.00 | 0.00 | 0.00 | 91 | 1013.6 |
| 20260504040453 | 9 | 329 | 0.0 | 0.0 | 0.00 | 0.00 | 0.00 | 91 | 1013.9 |
| 20260504035949 | 9 | 344 | 1.6 | 1.6 | 0.00 | 0.00 | 0.00 | 89 | 1013.8 |
| 20260504035446 | 9 | 339 | 3.2 | 3.2 | 0.00 | 0.00 | 0.00 | 89 | 1013.9 |
| 20260504034943 | 9 | 333 | 0.0 | 0.0 | 0.00 | 0.00 | 0.00 | 86 | 1014.2 |
| 20260504034440 | 10 | 333 | 0.0 | 0.0 | 0.00 | 0.00 | 0.00 | 85 | 1013.9 |
| 20260504033937 | 10 | 333 | 0.0 | 1.6 | 0.00 | 0.00 | 0.00 | 82 | 1014.0 |
| 20260504033435 | 10 | 332 | 0.0 | 0.0 | 0.00 | 0.00 | 0.00 | 80 | 1013.7 |
| 20260504032932 | 10 | 334 | 1.6 | 1.6 | 0.00 | 0.00 | 0.00 | 79 | 1013.8 |
| 20260504032429 | 10 | 331 | 0.0 | 0.0 | 0.00 | 0.00 | 0.00 | 78 | 1013.8 |
| 20260504031925 | 10 | 2 | 4.8 | 4.8 | 0.00 | 0.00 | 0.00 | 76 | 1013.8 |
| 20260504031422 | 10 | 315 | 0.0 | 0.0 | 0.00 | 0.00 | 0.00 | 77 | 1014.1 |
| 20260504030919 | 10 | 332 | 0.0 | 0.0 | 0.00 | 0.00 | 0.00 | 76 | 1013.9 |
| 20260504030416 | 10 | 332 | 0.0 | 0.0 | 0.00 | 0.00 | 0.00 | 74 | 1013.8 |
| 20260504025912 | 10 | 307 | 0.0 | 1.6 | 0.00 | 0.00 | 0.00 | 77 | 1013.9 |
| 20260504025409 | 10 | 337 | 0.0 | 0.0 | 0.00 | 0.00 | 0.00 | 74 | 1014.0 |
| 20260504024906 | 10 | 337 | 0.0 | 0.0 | 0.00 | 0.00 | 0.00 | 75 | 1013.8 |
| 20260504024403 | 10 | 337 | 0.0 | 0.0 | 0.00 | 0.00 | 0.00 | 74 | 1013.8 |
| 20260504023900 | 10 | 337 | 0.0 | 0.0 | 0.00 | 0.00 | 0.00 | 74 | 1013.8 |
| 20260504023356 | 10 | 337 | 0.0 | 0.0 | 0.00 | 0.00 | 0.00 | 72 | 1013.7 |
| 20260504022852 | 10 | 338 | 0.0 | 0.0 | 0.00 | 0.00 | 0.00 | 71 | 1013.7 |
| 20260504022349 | 10 | 337 | 1.6 | 1.6 | 0.00 | 0.00 | 0.00 | 73 | 1013.7 |
| 20260504021845 | 10 | 336 | 0.0 | 1.6 | 0.00 | 0.00 | 0.00 | 71 | 1013.6 |
| 20260504021343 | 10 | 336 | 0.0 | 0.0 | 0.00 | 0.00 | 0.00 | 72 | 1013.6 |
| 20260504020840 | 10 | 336 | 0.0 | 0.0 | 0.00 | 0.00 | 0.00 | 72 | 1013.4 |
| 20260504020336 | 10 | 345 | 0.0 | 0.0 | 0.00 | 0.00 | 0.00 | 71 | 1013.3 |
| 20260504015832 | 10 | 337 | 1.6 | 1.6 | 0.00 | 0.00 | 0.00 | 71 | 1013.0 |
| 20260504015329 | 10 | 336 | 0.0 | 1.6 | 0.00 | 0.00 | 0.00 | 70 | 1013.0 |
| 20260504014825 | 10 | 336 | 0.0 | 0.0 | 0.00 | 0.00 | 0.00 | 70 | 1013.1 |
| 20260504014321 | 10 | 337 | 1.6 | 1.6 | 0.00 | 0.00 | 0.00 | 71 | 1013.2 |
| 20260504013819 | 10 | 337 | 0.0 | 1.6 | 0.00 | 0.00 | 0.00 | 71 | 1013.0 |
| 20260504013317 | 10 | 338 | 0.0 | 0.0 | 0.00 | 0.00 | 0.00 | 69 | 1013.1 |
| 20260504012813 | 10 | 340 | 1.6 | 1.6 | 0.00 | 0.00 | 0.00 | 68 | 1013.1 |
| 20260504012311 | 10 | 337 | 1.6 | 1.6 | 0.00 | 0.00 | 0.00 | 69 | 1013.2 |
| 20260504011808 | 11 | 341 | 3.2 | 3.2 | 0.00 | 0.00 | 0.00 | 68 | 1013.2 |
| 20260504011304 | 11 | 342 | 3.2 | 3.2 | 0.00 | 0.00 | 0.00 | 67 | 1013.1 |
| 20260504010800 | 11 | 338 | 3.2 | 3.2 | 0.00 | 0.00 | 0.00 | 66 | 1012.9 |
| 20260504010256 | 11 | 338 | 1.6 | 1.6 | 0.00 | 0.00 | 0.00 | 66 | 1013.2 |
| 20260504005753 | 11 | 339 | 1.6 | 3.2 | 0.00 | 0.00 | 0.00 | 66 | 1013.1 |
| 20260504005250 | 11 | 342 | 3.2 | 3.2 | 0.00 | 0.00 | 0.00 | 65 | 1013.1 |
| 20260504004748 | 11 | 339 | 1.6 | 3.2 | 0.00 | 0.00 | 0.00 | 64 | 1013.3 |
| 20260504004245 | 11 | 340 | 1.6 | 1.6 | 0.00 | 0.00 | 0.00 | 64 | 1013.3 |
| 20260504003741 | 12 | 340 | 1.6 | 3.2 | 0.00 | 0.00 | 0.00 | 63 | 1013.3 |
| 20260504003238 | 12 | 340 | 1.6 | 3.2 | 0.00 | 0.00 | 0.00 | 63 | 1013.1 |
| 20260504002735 | 12 | 341 | 1.6 | 1.6 | 0.00 | 0.00 | 0.00 | 61 | 1013.0 |
| 20260504002231 | 12 | 339 | 1.6 | 1.6 | 0.00 | 0.00 | 0.00 | 60 | 1013.1 |
| 20260504001730 | 12 | 340 | 1.6 | 1.6 | 0.00 | 0.00 | 0.00 | 55 | 1013.2 |
| 20260504001226 | 12 | 340 | 1.6 | 1.6 | 0.00 | 0.00 | 0.00 | 54 | 1013.1 |
| 20260504000723 | 13 | 341 | 1.6 | 1.6 | 0.00 | 0.00 | 0.00 | 54 | 1013.2 |
| 20260504000220 | 12 | 339 | 0.0 | 0.0 | 0.00 | 0.00 | 0.00 | 54 | 1013.2 |
| 20260503235718 | 13 | 340 | 0.0 | 0.0 | 0.00 | 0.00 | 0.00 | 57 | 1013.3 |
| 20260503235215 | 13 | 340 | 0.0 | 0.0 | 0.00 | 0.00 | 0.00 | 56 | 1013.1 |
| 20260503234713 | 14 | 340 | 0.0 | 0.0 | 0.00 | 0.00 | 0.00 | 54 | 1012.9 |
| 20260503234211 | 14 | 340 | 0.0 | 0.0 | 0.00 | 0.00 | 0.00 | 52 | 1013.1 |
| 20260503233707 | 15 | 340 | 0.0 | 0.0 | 0.00 | 0.00 | 0.00 | 52 | 1013.2 |
| 20260503233203 | 15 | 340 | 0.0 | 0.0 | 0.00 | 0.00 | 0.00 | 49 | 1013.1 |
| 20260503232700 | 15 | 341 | 0.0 | 0.0 | 0.00 | 0.00 | 0.00 | 43 | 1013.0 |
| 20260503232157 | 15 | 350 | 1.6 | 1.6 | 0.00 | 0.00 | 0.00 | 43 | 1013.4 |
| 20260503231656 | 15 | 343 | 0.0 | 1.6 | 0.00 | 0.00 | 0.00 | 42 | 1013.2 |
| 20260503231151 | 15 | 339 | 1.6 | 1.6 | 0.00 | 0.00 | 0.00 | 47 | 1013.5 |
| 20260503230648 | 15 | 324 | 0.0 | 0.0 | 0.00 | 0.00 | 0.00 | 44 | 1013.6 |
| 20260503230145 | 15 | 336 | 0.0 | 0.0 | 0.00 | 0.00 | 0.00 | 45 | 1013.2 |
| 20260503225643 | 16 | 359 | 3.2 | 3.2 | 0.00 | 0.00 | 0.00 | 42 | 1013.5 |
| 20260503225143 | 16 | 9 | 0.0 | 1.6 | 0.00 | 0.00 | 0.00 | 47 | 1013.7 |
| 20260503224640 | 16 | 19 | 1.6 | 1.6 | 0.00 | 0.00 | 0.00 | 39 | 1013.7 |
| 20260503224138 | 16 | 54 | 3.2 | 3.2 | 0.00 | 0.00 | 0.00 | 39 | 1013.6 |
| 20260503223636 | 16 | 78 | 3.2 | 3.2 | 0.00 | 0.00 | 0.00 | 39 | 1013.8 |
| 20260503223132 | 17 | 332 | 0.0 | 1.6 | 0.00 | 0.00 | 0.00 | 43 | 1013.6 |
| 20260503222629 | 17 | 337 | 0.0 | 1.6 | 0.00 | 0.00 | 0.00 | 35 | 1013.9 |
| 20260503222127 | 17 | 308 | 1.6 | 1.6 | 0.00 | 0.00 | 0.00 | 39 | 1014.0 |
| 20260503221625 | 17 | 334 | 0.0 | 0.0 | 0.00 | 0.00 | 0.00 | 41 | 1013.6 |
| 20260503221122 | 17 | 335 | 0.0 | 1.6 | 0.00 | 0.00 | 0.00 | 36 | 1013.8 |
| 20260503220619 | 18 | 336 | 0.0 | 1.6 | 0.00 | 0.00 | 0.00 | 36 | 1013.8 |
| 20260503220115 | 18 | 139 | 6.4 | 9.7 | 0.00 | 0.00 | 0.00 | 33 | 1013.7 |
| 20260503215612 | 18 | 279 | 1.6 | 3.2 | 0.00 | 0.00 | 0.00 | 39 | 1013.8 |
| 20260503215109 | 17 | 215 | 3.2 | 4.8 | 0.00 | 0.00 | 0.00 | 37 | 1013.6 |
| 20260503214608 | 17 | 303 | 1.6 | 1.6 | 0.00 | 0.00 | 0.00 | 32 | 1013.9 |
| 20260503214104 | 18 | 282 | 1.6 | 3.2 | 0.00 | 0.00 | 0.00 | 35 | 1013.8 |
| 20260503213603 | 18 | 200 | 3.2 | 4.8 | 0.00 | 0.00 | 0.00 | 34 | 1013.7 |
| 20260503213058 | 18 | 333 | 0.0 | 1.6 | 0.00 | 0.00 | 0.00 | 39 | 1013.8 |
| 20260503212556 | 18 | 313 | 1.6 | 1.6 | 0.00 | 0.00 | 0.00 | 36 | 1014.0 |
| 20260503212053 | 17 | 276 | 4.8 | 4.8 | 0.00 | 0.00 | 0.00 | 34 | 1014.2 |
| 20260503211551 | 18 | 196 | 6.4 | 8.0 | 0.00 | 0.00 | 0.00 | 34 | 1014.1 |
| 20260503211046 | 17 | 7 | 4.8 | 4.8 | 0.00 | 0.00 | 0.00 | 38 | 1014.1 |
| 20260503210543 | 18 | 225 | 6.4 | 9.7 | 0.00 | 0.00 | 0.00 | 36 | 1014.1 |
| 20260503210038 | 17 | 314 | 3.2 | 3.2 | 0.00 | 0.00 | 0.00 | 34 | 1014.1 |
| 20260503205535 | 17 | 290 | 3.2 | 3.2 | 0.00 | 0.00 | 0.00 | 36 | 1014.4 |
| 20260503205032 | 18 | 190 | 6.4 | 8.0 | 0.00 | 0.00 | 0.00 | 35 | 1014.2 |
| 20260503204529 | 18 | 288 | 3.2 | 3.2 | 0.00 | 0.00 | 0.00 | 39 | 1014.5 |
| 20260503204026 | 18 | 13 | 3.2 | 4.8 | 0.00 | 0.00 | 0.00 | 39 | 1014.3 |
| 20260503203523 | 18 | 255 | 4.8 | 4.8 | 0.00 | 0.00 | 0.00 | 38 | 1014.6 |
| 20260503203020 | 17 | 235 | 4.8 | 4.8 | 0.00 | 0.00 | 0.00 | 39 | 1014.5 |
| 20260503202518 | 17 | 281 | 3.2 | 3.2 | 0.00 | 0.00 | 0.00 | 36 | 1014.7 |
| 20260503202016 | 17 | 358 | 1.6 | 3.2 | 0.00 | 0.00 | 0.00 | 37 | 1014.7 |
| 20260503201514 | 17 | 219 | 4.8 | 4.8 | 0.00 | 0.00 | 0.00 | 38 | 1014.8 |
| 20260503201011 | 18 | 277 | 6.4 | 8.0 | 0.00 | 0.00 | 0.00 | 36 | 1014.9 |
| 20260503200507 | 17 | 91 | 6.4 | 8.0 | 0.00 | 0.00 | 0.00 | 37 | 1015.0 |
| 20260503200004 | 17 | 12 | 3.2 | 3.2 | 0.00 | 0.00 | 0.00 | 33 | 1015.3 |
| 20260503195501 | 17 | 194 | 3.2 | 4.8 | 0.00 | 0.00 | 0.00 | 34 | 1015.4 |
| 20260503194957 | 16 | 142 | 8.0 | 9.7 | 0.00 | 0.00 | 0.00 | 36 | 1015.4 |
| 20260503194455 | 17 | 214 | 3.2 | 3.2 | 0.00 | 0.00 | 0.00 | 38 | 1015.3 |
| 20260503193949 | 17 | 204 | 6.4 | 9.7 | 0.00 | 0.00 | 0.00 | 38 | 1015.5 |
| 20260503193445 | 16 | 311 | 0.0 | 1.6 | 0.00 | 0.00 | 0.00 | 37 | 1015.8 |
| 20260503192941 | 16 | 257 | 1.6 | 3.2 | 0.00 | 0.00 | 0.00 | 36 | 1015.7 |
| 20260503192437 | 16 | 304 | 3.2 | 3.2 | 0.00 | 0.00 | 0.00 | 38 | 1015.9 |
| 20260503191933 | 17 | 288 | 1.6 | 3.2 | 0.00 | 0.00 | 0.00 | 38 | 1016.1 |
| 20260503191431 | 16 | 142 | 3.2 | 3.2 | 0.00 | 0.00 | 0.00 | 40 | 1016.1 |
| 20260503190927 | 16 | 213 | 3.2 | 3.2 | 0.00 | 0.00 | 0.00 | 41 | 1016.4 |
| 20260503190425 | 16 | 262 | 3.2 | 4.8 | 0.00 | 0.00 | 0.00 | 36 | 1016.5 |
| 20260503185922 | 16 | 68 | 4.8 | 4.8 | 0.00 | 0.00 | 0.00 | 35 | 1016.5 |
| 20260503185418 | 17 | 227 | 6.4 | 9.7 | 0.00 | 0.00 | 0.00 | 40 | 1016.6 |
| 20260503184917 | 17 | 306 | 1.6 | 3.2 | 0.00 | 0.00 | 0.00 | 38 | 1016.6 |
| 20260503184414 | 16 | 347 | 4.8 | 9.7 | 0.00 | 0.00 | 0.00 | 41 | 1016.6 |
| 20260503183910 | 16 | 246 | 3.2 | 3.2 | 0.00 | 0.00 | 0.00 | 41 | 1016.7 |
| 20260503183407 | 15 | 325 | 1.6 | 3.2 | 0.00 | 0.00 | 0.00 | 37 | 1016.9 |
| 20260503182904 | 15 | 342 | 3.2 | 3.2 | 0.00 | 0.00 | 0.00 | 35 | 1017.0 |
| 20260503182403 | 16 | 327 | 1.6 | 3.2 | 0.00 | 0.00 | 0.00 | 36 | 1017.4 |
| 20260503181900 | 16 | 340 | 0.0 | 1.6 | 0.00 | 0.00 | 0.00 | 42 | 1017.0 |
| 20260503181357 | 15 | 267 | 6.4 | 8.0 | 0.00 | 0.00 | 0.00 | 39 | 1017.2 |
| 20260503180853 | 15 | 58 | 4.8 | 4.8 | 0.00 | 0.00 | 0.00 | 47 | 1017.1 |
| 20260503180351 | 16 | 253 | 6.4 | 8.0 | 0.00 | 0.00 | 0.00 | 40 | 1017.6 |
| 20260503175847 | 15 | 208 | 8.0 | 9.7 | 0.00 | 0.00 | 0.00 | 39 | 1017.4 |
| 20260503175346 | 15 | 200 | 6.4 | 8.0 | 0.00 | 0.00 | 0.00 | 38 | 1017.3 |
| 20260503174841 | 15 | 279 | 4.8 | 4.8 | 0.00 | 0.00 | 0.00 | 41 | 1017.6 |
| 20260503174339 | 15 | 198 | 9.7 | 11.3 | 0.00 | 0.00 | 0.00 | 41 | 1017.8 |
| 20260503173834 | 15 | 215 | 4.8 | 8.0 | 0.00 | 0.00 | 0.00 | 42 | 1018.0 |
| 20260503173331 | 14 | 257 | 8.0 | 11.3 | 0.00 | 0.00 | 0.00 | 43 | 1017.8 |
| 20260503172827 | 15 | 9 | 1.6 | 1.6 | 0.00 | 0.00 | 0.00 | 40 | 1017.6 |
| 20260503172326 | 15 | 149 | 1.6 | 3.2 | 0.00 | 0.00 | 0.00 | 42 | 1017.8 |
| 20260503171821 | 15 | 213 | 6.4 | 8.0 | 0.00 | 0.00 | 0.00 | 43 | 1017.8 |
| 20260503171318 | 15 | 292 | 4.8 | 8.0 | 0.00 | 0.00 | 0.00 | 44 | 1018.1 |
| 20260503170816 | 15 | 272 | 4.8 | 4.8 | 0.00 | 0.00 | 0.00 | 45 | 1018.3 |
| 20260503170312 | 15 | 320 | 1.6 | 1.6 | 0.00 | 0.00 | 0.00 | 47 | 1018.1 |
| 20260503150704 | 12 | 15 | 3.2 | 3.2 | 0.00 | 0.00 | 0.00 | 50 | 1019.0 |
| 20260503150200 | 11 | 217 | 4.8 | 4.8 | 0.00 | 0.00 | 0.00 | 50 | 1019.5 |